Regional Weather Roundup
Issued by NWS Northern Indiana

Home | Current Version | Previous Version | Text Only | Print | Product List | Glossary Off
Versions: 1 2 3 4 5 6 7 8 9 10 11 12 13 14 15 16 17 18 19 20 21 22 23 24 25 26 27 28 29 30 31 32 33 34 35 36 37 38 39 40 41 42 43 44 45 46 47 48 49 50

000
ASUS43 KIWX 291910
RWRIWX

KIWX WEATHER ROUNDUP
NATIONAL WEATHER SERVICE NORTHERN INDIANA
300 PM EDT WED MAR 29 2017

NOTE: "FAIR" INDICATES FEW OR NO CLOUDS BELOW 12,000 FEET WITH NO
SIGNIFICANT WEATHER AND/OR OBSTRUCTIONS TO VISIBILITY.

* THESE STATIONS ARE NOT UNDER NWS QUALITY CONTROL. THEY ALSO MAY NOT
  REPORT WEATHER SUCH AS PRECIPITATION OR FOG.

INZ001>027-292000-
NORTHERN INDIANA

CITY           SKY/WX    TMP DP  RH WIND       PRES   REMARKS
GARY*          CLOUDY    46  36  66 NE8       30.22F
VALPARAISO     MOSUNNY   57  38  48 E15       30.19F
MICHIGAN CITY* CLOUDY    54  34  47 E7        30.20F
LAPORTE*       MOSUNNY   55  36  50 E17       30.20F
KNOX*          MOSUNNY   55  10  16 E15G22    30.19F
SOUTH BEND     MOSUNNY   56  35  45 E10       30.23F
ELKHART*       SUNNY     55  32  41 SE13      30.22F
GOSHEN         PTSUNNY   54  33  45 E13G21    30.22S
MONTICELLO*    MOSUNNY   56  37  47 E12G22    30.15F
LOGANSPORT*    PTSUNNY   55  37  50 E17       30.17F
WARSAW*        PTSUNNY   54  34  47 E15G21    30.21F
ANGOLA*        SUNNY     54  39  58 E15       30.23F
FORT WAYNE     PTSUNNY   53  37  54 E18G24    30.21F
HUNTINGTON*    MOSUNNY   55  38  53 E9G17     30.20F
PERU/GRISSOM   PTSUNNY   56  40  54 E15G25    30.15F
MARION*        SUNNY     53  40  60 E15G22    30.18F

$$
INZ028>050-292000-
CENTRAL INDIANA

CITY           SKY/WX    TMP DP  RH WIND       PRES   REMARKS
LAFAYETTE      SUNNY     55  40  56 E21       30.12F
KOKOMO*        PTSUNNY   55  44  66 E18       30.16F
MUNCIE*        SUNNY     57  43  59 E20G25    30.17F
INDIANAPOLIS   MOSUNNY   56  42  59 E16       30.12F

$$
MIZ043>046-050>051-056>058-064>065-071>073-077>080-292000-
SOUTHWEST LOWER MICHIGAN

CITY           SKY/WX    TMP DP  RH WIND       PRES   REMARKS
BATTLE CREEK   CLOUDY    54  31  41 E12G21    30.24F
BENTON HARBOR  MOSUNNY   55  33  43 E9        30.23F
COLDWATER*     CLOUDY    54  31  40 NE14G22   30.23F
HILLSDALE*     MOSUNNY   52  32  46 E10G16    30.23S
HOLLAND        CLOUDY    54  33  45 E12       30.27S
GRAND RAPIDS   CLOUDY    52  35  52 SE9       30.26F
KALAMAZOO      CLOUDY    58  29  33 E10       30.25S
STURGIS*       CLOUDY    56  33  42 E15       30.22F
THREE RIVERS*  FAIR      56  32  40 E10G16    30.24S HAZE

$$
OHZ001>008-015>018-024>025-292000-
NORTHWEST OHIO

CITY           SKY/WX    TMP DP  RH WIND       PRES   REMARKS
WAUSEON*       FAIR      54  30  40 E16G25    30.24F
DEFIANCE       MOSUNNY   53  34  48 E17       30.22F
FINDLAY        SUNNY     57  34  41 NE15      30.21F
TOLEDO EXPRESS MOSUNNY   52  29  41 NE16      30.25F
TOLEDO METCALF SUNNY     53  34  48 NE12      30.27F
LIMA           SUNNY     54  42  64 E15       30.21F

$$
AND FOR LAKE MICHIGAN COASTAL AND OPEN LAKE BUOY OBSERVATIONS

STATION/POSITION TEMP    WIND        PRES    VSBY  WAVE
                 AIR SEA DIR/SP/G                  HT/PER
                 (F)     (DEG/KT/KT) (MB)    (MI)  (FT/S)
CALUMET HARBOR    40      10/ 12/ 16 1022.6F
MICHIGAN CITY     40      10/ 11/ 12   N/A
BURNS HARBOR      41      60/ 11/ 13 1023.0F

$$
&&




USA.gov is the U.S. government's official web portal to all federal, state and local government web resources and services.